ZKPY/FNJ METAR and TAF weather

Enter ICAO airport designator
Station Type Date Time Source
ZKPY METAR 2014/10/31 02:00 UTC NOAA

ZKPY 310200Z 0000MPS 5000 BR SCT200 17/06 Q1019 NOSIG


Station Type Date Time Source
ZKPY Decoded METAR 2014/10/31 02:00 UTC NOAA

Pyongyang, Korea, North (ZKPY) 39-02N 125-47E 38M
Oct 30, 2014 - 10:00 PM EDT / 2014.10.31 0200 UTC
Visibility: 3 mile(s):0
Sky conditions: partly cloudy
Weather: mist
Temperature: 62 F (17 C)
Dew Point: 42 F (6 C)
Relative Humidity: 48%
Pressure (altimeter): 30.09 in. Hg (1019 hPa)
ob: ZKPY 310200Z 0000MPS 5000 BR SCT200 17/06 Q1019 NOSIG
cycle: 2

Station Type Date Time Source
ZKPY TAF 2021/05/12 06:50 UTC NOAA

TAF ZKPY 120450Z 1206/1306 09004MPS 9999 OVC033 TX22/1206Z TN13/1222Z
TEMPO 1210/1222 15003MPS 2000 -RA
BECMG 1302/1304 27004MPS 4000 BR NSC

Example: see airport list